Weather History for Moses Lake, WA

Change the Weather History Date:

Sunday, November 3, 2013

  Actual Average Record
Temperature  
Mean Temperature 44 °F 42 °F  
Max Temperature 53 °F 53 °F 63 °F (2010)
Min Temperature 34 °F 32 °F 12 °F (2002)
Degree Days  
Heating Degree Days 21 23  
Month to date heating degree days 53 67  
Since 1 July heating degree days 657 704  
Cooling Degree Days 0 0  
Month to date cooling degree days 0 0  
Year to date cooling degree days 948 615  
Moisture  
Dew Point 29 °F    
Average Humidity 60    
Maximum Humidity 89    
Minimum Humidity 30    
Precipitation  
Precipitation 0.00 in 0.03 in 0.23 in (2005)
Month to date precipitation 0.31 0.10  
Year to date precipitation 5.57 6.57  
Sea Level Pressure  
Sea Level Pressure 29.97 in    
Wind  
Wind Speed 7 mph (West)    
Max Wind Speed 16 mph    
Max Gust Speed 22 mph    
Visibility 10 miles    
Events      
T = Trace of Precipitation, MM = Missing Value Source: NWS Daily Summary

Daily Weather History Graph

Daily Weather History Graph

Search for Another Location

Airport:

Trip Planner

Search our weather history database for the weather conditions in past years. The results will help you decide how hot, cold, wet, or windy it might be!

Date:

Astronomy

Nov. 03, 2013 Rise Set
Actual Time 6:43 AM PST 4:37 PM PST
Civil Twilight 6:11 AM PST 5:09 PM PST
Nautical Twilight 5:35 AM PST 5:45 PM PST
Astronomical Twilight 4:59 AM PST 6:21 PM PST
Moon 6:54 AM PST (11/3) 4:53 PM PST (11/3)
Length of Visible Light 10h 57m
Length of Day
9h 53m
New Moon, 0% of the Moon is Illuminated
Nov 3
New Moon
Nov 9
First Quarter
Nov 17
Full
Nov 25
Last Quarter
Dec 2
New

Hourly Weather History & Observations

Time (PST) Temp. Windchill Dew Point Humidity Pressure Visibility Wind Dir Wind Speed Gust Speed Precip Events Conditions
12:52 AM 42.1 °F 35.7 °F 30.9 °F 65% 29.81 in 10.0 mi SW 11.5 mph - N/A   Overcast
1:52 AM 41.0 °F 35.8 °F 30.9 °F 67% 29.81 in 10.0 mi SSW 8.1 mph - N/A   Partly Cloudy
1:52 AM 41.0 °F 35.2 °F 30.0 °F 65% 29.82 in 10.0 mi West 9.2 mph - N/A   Scattered Clouds
2:52 AM 39.9 °F 32.1 °F 32.0 °F 73% 29.83 in 10.0 mi West 13.8 mph - N/A   Mostly Cloudy
3:52 AM 36.0 °F 33.3 °F 30.0 °F 79% 29.86 in 10.0 mi WNW 3.5 mph - N/A   Partly Cloudy
4:52 AM 36.0 °F 29.6 °F 30.9 °F 82% 29.88 in 10.0 mi North 8.1 mph - N/A   Partly Cloudy
5:52 AM 36.0 °F 29.6 °F 32.0 °F 86% 29.90 in 10.0 mi NNW 8.1 mph - N/A   Mostly Cloudy
6:52 AM 36.0 °F 33.3 °F 32.0 °F 86% 29.92 in 10.0 mi NNW 3.5 mph - N/A   Mostly Cloudy
7:52 AM 37.0 °F - 33.1 °F 86% 29.96 in 10.0 mi Calm Calm - N/A   Partly Cloudy
8:52 AM 41.0 °F - 33.1 °F 73% 29.97 in 10.0 mi Calm Calm - N/A   Partly Cloudy
9:52 AM 45.0 °F 43.5 °F 33.1 °F 63% 29.98 in 10.0 mi SSW 3.5 mph - N/A   Clear
10:52 AM 48.0 °F - 32.0 °F 54% 30.00 in 10.0 mi SSW 5.8 mph - N/A   Clear
11:52 AM 50.0 °F - 30.9 °F 48% 30.12 in 10.0 mi SSW 4.6 mph - N/A   Clear
12:52 PM 51.1 °F - 28.0 °F 41% 30.12 in 10.0 mi SW 8.1 mph - N/A   Clear
1:52 PM 51.1 °F - 28.0 °F 41% 30.11 in 10.0 mi SSW 8.1 mph - N/A   Scattered Clouds
2:52 PM 51.1 °F - 21.9 °F 32% 30.11 in 10.0 mi WNW 9.2 mph - N/A   Mostly Cloudy
3:52 PM 50.0 °F - 25.0 °F 38% 29.97 in 10.0 mi West 10.4 mph - N/A   Partly Cloudy
4:52 PM 46.0 °F 43.1 °F 27.0 °F 47% 29.97 in 10.0 mi WSW 5.8 mph - N/A   Clear
5:52 PM 41.0 °F 39.0 °F 27.0 °F 57% 29.99 in 10.0 mi WSW 3.5 mph - N/A   Scattered Clouds
6:52 PM 41.0 °F 35.8 °F 23.0 °F 49% 30.00 in 10.0 mi NW 8.1 mph - N/A   Mostly Cloudy
7:52 PM 42.1 °F 36.1 °F 27.0 °F 55% 30.00 in 10.0 mi North 10.4 mph - N/A   Overcast
8:52 PM 41.0 °F 34.7 °F 27.0 °F 57% 30.01 in 10.0 mi NW 10.4 mph - N/A   Overcast
9:52 PM 39.9 °F 36.7 °F 28.0 °F 63% 30.03 in 10.0 mi NW 4.6 mph - N/A   Overcast
10:52 PM 37.9 °F 30.9 °F 28.0 °F 68% 30.03 in 10.0 mi NW 10.4 mph - N/A   Overcast